This is the latest recevied weather packets stored in our database for station/object KC1TEM-13. If no packets are shown the sender has not sent any weather packets the latest 10 day(s).
| Time | Temp. | Humidity | Pressure | Rain* | Wind** | Luminosity | Snow |
|---|---|---|---|---|---|---|---|
| 1777682608 | 9.44° C | 57% | 1011.3 hPa | 0 mm | - | 0 W/m² | - |
| 1777682306 | 10° C | 52% | 1011.3 hPa | 0 mm | - | 0 W/m² | - |
| 1777682003 | 10° C | 51% | 1011.4 hPa | 0 mm | - | 0 W/m² | - |
| 1777681699 | 10.56° C | 51% | 1011.3 hPa | 0 mm | - | 0 W/m² | - |
| 1777681396 | 10.56° C | 49% | 1011 hPa | 0 mm | - | 0 W/m² | - |
| 1777681094 | 11.11° C | 46% | 1011 hPa | 0 mm | - | 0 W/m² | - |
| 1777680791 | 11.11° C | 44% | 1010.9 hPa | 0 mm | - | 0 W/m² | - |
| 1777680489 | 11.67° C | 45% | 1010.7 hPa | 0 mm | - | 0 W/m² | - |
| 1777680187 | 11.67° C | 48% | 1010.7 hPa | 0 mm | - | 0 W/m² | - |
| 1777679882 | 12.22° C | 42% | 1010.8 hPa | 0 mm | - | 0 W/m² | - |
| 1777679578 | 12.22° C | 38% | 1010.5 hPa | 0 mm | - | 1 W/m² | - |
| 1777679274 | 12.78° C | 36% | 1010.5 hPa | 0 mm | - | 2 W/m² | - |
| 1777678971 | 12.78° C | 35% | 1010.4 hPa | 0 mm | - | 3 W/m² | - |
| 1777678669 | 13.33° C | 35% | 1010.4 hPa | 0 mm | - | 5 W/m² | - |
| 1777678366 | 13.89° C | 35% | 1010.3 hPa | 0 mm | - | 7 W/m² | - |
| 1777678062 | 13.89° C | 34% | 1010.3 hPa | 0 mm | - | 9 W/m² | - |
| 1777677759 | 13.89° C | 33% | 1010.1 hPa | 0 mm | - | 11 W/m² | - |
| 1777677457 | 14.44° C | 31% | 1010.1 hPa | 0 mm | - | 13 W/m² | - |
| 1777677155 | 14.44° C | 32% | 1010 hPa | 0 mm | - | 15 W/m² | - |
| 1777676853 | 14.44° C | 31% | 1009.9 hPa | 0 mm | - | 17 W/m² | - |
| 1777676552 | 14.44° C | 30% | 1010.1 hPa | 0 mm | - | 19 W/m² | - |
| 1777676249 | 15° C | 30% | 1009.8 hPa | 0 mm | - | 21 W/m² | - |
| 1777675946 | 15° C | 31% | 1009.8 hPa | 0 mm | - | 23 W/m² | - |
| 1777675641 | 15° C | 30% | 1009.7 hPa | 0 mm | - | 24 W/m² | - |
| 1777675339 | 15° C | 30% | 1009.8 hPa | 0 mm | - | 25 W/m² | - |
* Rain latest hour (hover to see other rain measurements)
** Current wind speed in m/s (hover to see current wind gust speed)